Weather History for Harrison, AR

Change the Weather History Date:

Wednesday, August 22, 2012

  Actual Average Record
Temperature  
Mean Temperature 78 °F 77 °F  
Max Temperature 91 °F 89 °F 104 °F (1936)
Min Temperature 65 °F 66 °F 45 °F (1956)
Degree Days  
Heating Degree Days 0 0  
Month to date heating degree days 0 0  
Since 1 June heating degree days 5 6  
Since 1 July heating degree days 0 0  
Cooling Degree Days 13 12  
Month to date cooling degree days 299 296  
Year to date cooling degree days 1607 1114  
Since 1 June cooling degree days 1280 975  
Growing Degree Days 28 (Base 50)    
Moisture  
Dew Point 54 °F    
Average Humidity 45    
Maximum Humidity 66    
Minimum Humidity 24    
Precipitation  
Precipitation 0.00 in 0.11 in 2.00 in (1911)
Month to date precipitation 2.53 2.58  
Year to date precipitation 20.19 27.96  
Snow  
Snow 0.00 in 0.00 in - ()
Month to date snowfall 0.0 0.0  
Since 1 June snowfall 0.0 0.0  
Since 1 July snowfall 0.0 0.0  
Snow Depth 0.00 in    
Sea Level Pressure  
Sea Level Pressure 30.06 in    
Wind  
Wind Speed 5 mph (SW)    
Max Wind Speed 13 mph    
Max Gust Speed 17 mph    
Visibility 10 miles    
Events      
T = Trace of Precipitation, MM = Missing Value Source: NWS Daily Summary

Daily Weather History Graph

Daily Weather History Graph

Search for Another Location

Airport:

Trip Planner

Search our weather history database for the weather conditions in past years. The results will help you decide how hot, cold, wet, or windy it might be!

Date:

Astronomy

Aug. 22, 2012 Rise Set
Actual Time 6:36 AM CDT 7:53 PM CDT
Civil Twilight 6:09 AM CDT 8:20 PM CDT
Nautical Twilight 5:37 AM CDT 8:52 PM CDT
Astronomical Twilight 5:04 AM CDT 9:25 PM CDT
Moon 12:04 PM CDT (8/22) 10:48 PM CDT (8/22)
Length of Visible Light 14h 10m
Length of Day
13h 16m
Waxing Crescent, 29% of the Moon is Illuminated
Aug 22
Waxing Crescent
Aug 24
First Quarter
Aug 31
Full
Sep 8
Last Quarter
Sep 15
New

Hourly Weather History & Observations

Time (CDT) Temp. Heat Index Dew Point Humidity Pressure Visibility Wind Dir Wind Speed Gust Speed Precip Events Conditions
12:53 AM 66.9 °F - 52.0 °F 59% 30.04 in 10.0 mi SE 3.5 mph - N/A   Clear
1:53 AM 71.1 °F - 52.0 °F 51% 30.04 in 10.0 mi SSW 4.6 mph - N/A   Clear
2:53 AM 70.0 °F - 55.0 °F 59% 30.04 in 10.0 mi WSW 5.8 mph - N/A   Clear
3:53 AM 72.0 °F - 57.0 °F 59% 30.04 in 10.0 mi WNW 4.6 mph - N/A   Clear
4:53 AM 72.0 °F - 57.0 °F 59% 30.06 in 10.0 mi West 6.9 mph - N/A   Clear
5:53 AM 71.1 °F - 57.0 °F 61% 30.07 in 10.0 mi West 6.9 mph - N/A   Clear
6:53 AM 70.0 °F - 57.9 °F 65% 30.09 in 10.0 mi West 5.8 mph - N/A   Clear
7:53 AM 73.0 °F - 59.0 °F 61% 30.11 in 10.0 mi West 6.9 mph - N/A   Clear
8:53 AM 75.9 °F - 60.1 °F 58% 30.11 in 10.0 mi WNW 8.1 mph - N/A   Clear
9:53 AM 81.0 °F 81.7 °F 61.0 °F 50% 30.12 in 10.0 mi WNW 8.1 mph - N/A   Clear
10:53 AM 82.9 °F 83.2 °F 60.1 °F 46% 30.13 in 10.0 mi WNW 6.9 mph - N/A   Clear
11:53 AM 86.0 °F 85.4 °F 59.0 °F 40% 30.11 in 10.0 mi West 8.1 mph - N/A   Clear
12:53 PM 87.8 °F 86.1 °F 55.4 °F 33% 30.14 in 10.0 mi Variable 5.8 mph - N/A   Partly Cloudy
1:53 PM 89.1 °F 86.7 °F 53.1 °F 29% 30.07 in 10.0 mi Calm Calm - N/A   Mostly Cloudy
2:53 PM 90.0 °F - 48.0 °F 24% 30.05 in 10.0 mi South 8.1 mph - N/A   Partly Cloudy
3:53 PM 90.0 °F - 48.9 °F 24% 30.03 in 10.0 mi SE 5.8 mph - N/A   Clear
4:53 PM 90.0 °F - 51.1 °F 26% 30.02 in 10.0 mi SSE 4.6 mph - N/A   Clear
5:53 PM 88.0 °F - 50.0 °F 27% 30.02 in 10.0 mi South 6.9 mph - N/A   Clear
6:53 PM 84.9 °F - 51.1 °F 31% 30.02 in 10.0 mi SSW 5.8 mph - N/A   Clear
7:53 PM 81.0 °F - 50.0 °F 34% 30.01 in 10.0 mi SSW 3.5 mph - N/A   Clear
8:53 PM 78.1 °F - 50.0 °F 37% 30.03 in 10.0 mi WSW 3.5 mph - N/A   Clear
9:53 PM 75.0 °F - 51.1 °F 43% 30.04 in 10.0 mi Calm Calm - N/A   Clear
10:53 PM 73.4 °F - 50.0 °F 44% 30.09 in 10.0 mi South 3.5 mph - N/A   Clear
11:53 PM 75.0 °F - 50.0 °F 41% 30.04 in 10.0 mi SSW 4.6 mph - N/A   Clear